Stündliche Wetter Homburg

Heute, 15 Juni, Dienstag

Zeit Temperatur Niederschläge Wind Luftdruck Luftfeuchtigkeit
00:00 +15°C° 0 mm 0 m/S 742 mmHg 81%
01:00 +15°C° 0 mm 0 m/S 742 mmHg 81%
02:00 +15°C° 0 mm 1 m/S 741 mmHg 82%
03:00 +15°C° 0 mm 1 m/S 741 mmHg 82%
04:00 +16°C° 0 mm 1 m/S 742 mmHg 79%
05:00 +17°C° 0 mm 0 m/S 742 mmHg 75%
06:00 +18°C° 0 mm 0 m/S 742 mmHg 71%
07:00 +22°C° 0 mm 1 m/S 742 mmHg 66%
08:00 +24°C° 0 mm 1 m/S 742 mmHg 61%
09:00 +25°C° 0 mm 1 m/S 742 mmHg 56%
10:00 +26°C° 0 mm 1 m/S 742 mmHg 53%
11:00 +27°C° 0 mm 1 m/S 742 mmHg 51%
12:00 +28°C° 0 mm 2 m/S 742 mmHg 48%
13:00 +29°C° 0 mm 1 m/S 742 mmHg 48%
14:00 +29°C° 0 mm 1 m/S 741 mmHg 48%
15:00 +29°C° 0 mm 1 m/S 741 mmHg 47%
16:00 +28°C° 0 mm 1 m/S 741 mmHg 55%
17:00 +27°C° 0 mm 1 m/S 741 mmHg 63%
18:00 +24°C° 0 mm 0 m/S 741 mmHg 70%
19:00 +22°C° 0 mm 0 m/S 741 mmHg 74%
20:00 +20°C° 0 mm 0 m/S 741 mmHg 77%
21:00 +19°C° 0 mm 0 m/S 741 mmHg 81%
22:00 +18°C° 0 mm 0 m/S 740 mmHg 83%
23:00 +19°C° 0 mm 1 m/S 740 mmHg 84%

Morgen, 16 Juni, Mittwoch

Zeit Temperatur Niederschläge Wind Luftdruck Luftfeuchtigkeit
00:00 +19°C° 0 mm 1 m/S 740 mmHg 86%
01:00 +18°C° 0 mm 1 m/S 740 mmHg 87%
02:00 +18°C° 0 mm 1 m/S 740 mmHg 88%
03:00 +16°C° 0 mm 1 m/S 740 mmHg 89%
04:00 +19°C° 0 mm 1 m/S 740 mmHg 85%
05:00 +20°C° 0 mm 1 m/S 740 mmHg 81%
06:00 +21°C° 0 mm 1 m/S 740 mmHg 77%
07:00 +23°C° 0 mm 1 m/S 739 mmHg 71%
08:00 +25°C° 0 mm 1 m/S 739 mmHg 65%
09:00 +27°C° 0 mm 2 m/S 739 mmHg 60%
10:00 +28°C° 0 mm 2 m/S 739 mmHg 55%
11:00 +29°C° 0 mm 2 m/S 739 mmHg 51%
12:00 +30°C° 0 mm 1 m/S 739 mmHg 47%
13:00 +30°C° 0 mm 1 m/S 738 mmHg 46%
14:00 +30°C° 0 mm 1 m/S 738 mmHg 44%
15:00 +31°C° 0 mm 1 m/S 738 mmHg 43%
16:00 +30°C° 0 mm 1 m/S 738 mmHg 51%
17:00 +28°C° 0 mm 1 m/S 738 mmHg 60%
18:00 +27°C° 0 mm 1 m/S 737 mmHg 69%
19:00 +25°C° 0 mm 1 m/S 737 mmHg 72%
20:00 +24°C° 0 mm 1 m/S 737 mmHg 76%
21:00 +22°C° 0 mm 1 m/S 737 mmHg 80%
22:00 +21°C° 0 mm 1 m/S 737 mmHg 80%
23:00 +21°C° 0 mm 1 m/S 737 mmHg 80%

übermorgen, 17 Juni, Donnerstag

Zeit Temperatur Niederschläge Wind Luftdruck Luftfeuchtigkeit
00:00 +20°C° 0 mm 1 m/S 737 mmHg 80%
01:00 +20°C° 0 mm 1 m/S 737 mmHg 82%
02:00 +19°C° 0 mm 1 m/S 737 mmHg 83%
03:00 +19°C° 0 mm 1 m/S 737 mmHg 84%
04:00 +20°C° 0 mm 1 m/S 737 mmHg 81%
05:00 +21°C° 0 mm 1 m/S 737 mmHg 78%
06:00 +23°C° 0 mm 1 m/S 738 mmHg 75%
07:00 +24°C° 0 mm 1 m/S 738 mmHg 70%
08:00 +26°C° 0 mm 2 m/S 738 mmHg 64%
09:00 +28°C° 0 mm 2 m/S 738 mmHg 58%
10:00 +29°C° 0 mm 2 m/S 738 mmHg 56%
11:00 +30°C° 0 mm 2 m/S 738 mmHg 53%
12:00 +31°C° 0 mm 2 m/S 737 mmHg 50%
13:00 +31°C° 0 mm 2 m/S 737 mmHg 50%
14:00 +32°C° 0 mm 2 m/S 737 mmHg 50%
15:00 +32°C° 0 mm 2 m/S 737 mmHg 50%
16:00 +31°C° 0 mm 1 m/S 736 mmHg 57%
17:00 +30°C° 0 mm 1 m/S 736 mmHg 64%
18:00 +27°C° 0 mm 0 m/S 736 mmHg 71%
19:00 +27°C° 0.1 mm 1 m/S 736 mmHg 74%
20:00 +25°C° 0.1 mm 1 m/S 736 mmHg 77%
21:00 +23°C° 0.1 mm 1 m/S 736 mmHg 81%
22:00 +21°C° 0.7 mm 2 m/S 737 mmHg 86%
23:00 +19°C° 0.7 mm 3 m/S 738 mmHg 91%

18 Juni, Freitag

Zeit Temperatur Niederschläge Wind Luftdruck Luftfeuchtigkeit
00:00 +17°C° 0.7 mm 5 m/S 738 mmHg 95%
01:00 +18°C° 0.1 mm 4 m/S 738 mmHg 96%
02:00 +17°C° 0.1 mm 2 m/S 738 mmHg 96%
03:00 +18°C° 0.1 mm 1 m/S 738 mmHg 97%
04:00 +19°C° 0 mm 1 m/S 738 mmHg 96%
05:00 +19°C° 0 mm 1 m/S 738 mmHg 95%
06:00 +18°C° 0 mm 0 m/S 738 mmHg 93%
07:00 +22°C° 0.2 mm 1 m/S 738 mmHg 87%
08:00 +23°C° 0.2 mm 2 m/S 739 mmHg 81%
09:00 +25°C° 0.2 mm 3 m/S 739 mmHg 74%
10:00 +24°C° 0.6 mm 3 m/S 739 mmHg 77%
11:00 +22°C° 0.6 mm 4 m/S 739 mmHg 79%
12:00 +21°C° 0.6 mm 4 m/S 739 mmHg 81%
13:00 +23°C° 0.1 mm 4 m/S 739 mmHg 77%
14:00 +25°C° 0.1 mm 5 m/S 739 mmHg 74%
15:00 +26°C° 0.1 mm 5 m/S 739 mmHg 70%
16:00 +25°C° 0.4 mm 5 m/S 739 mmHg 75%
17:00 +23°C° 0.4 mm 4 m/S 739 mmHg 80%
18:00 +21°C° 0.4 mm 4 m/S 739 mmHg 85%
19:00 +20°C° 0 mm 3 m/S 740 mmHg 88%
20:00 +19°C° 0 mm 2 m/S 740 mmHg 90%
21:00 +19°C° 0 mm 1 m/S 740 mmHg 93%
22:00 +19°C° 0 mm 1 m/S 740 mmHg 94%
23:00 +18°C° 0 mm 1 m/S 740 mmHg 94%

19 Juni, Samstag

Zeit Temperatur Niederschläge Wind Luftdruck Luftfeuchtigkeit
00:00 +18°C° 0 mm 1 m/S 740 mmHg 94%
01:00 +18°C° 0 mm 1 m/S 740 mmHg 94%
02:00 +18°C° 0 mm 1 m/S 740 mmHg 94%
03:00 +16°C° 0 mm 1 m/S 741 mmHg 94%
04:00 +17°C° 0 mm 0 m/S 741 mmHg 91%
05:00 +18°C° 0 mm 0 m/S 741 mmHg 88%
06:00 +19°C° 0 mm 0 m/S 741 mmHg 85%
07:00 +23°C° 0 mm 1 m/S 741 mmHg 77%
08:00 +25°C° 0 mm 1 m/S 741 mmHg 69%
09:00 +27°C° 0 mm 1 m/S 741 mmHg 61%
10:00 +28°C° 0 mm 1 m/S 741 mmHg 57%
11:00 +29°C° 0 mm 1 m/S 741 mmHg 53%
12:00 +31°C° 0 mm 1 m/S 740 mmHg 49%
13:00 +31°C° 0 mm 1 m/S 740 mmHg 48%
14:00 +31°C° 0 mm 2 m/S 740 mmHg 48%
15:00 +32°C° 0 mm 2 m/S 739 mmHg 47%
16:00 +31°C° 0 mm 2 m/S 739 mmHg 55%
17:00 +29°C° 0 mm 2 m/S 739 mmHg 63%
18:00 +28°C° 0 mm 2 m/S 738 mmHg 70%
19:00 +27°C° 0 mm 2 m/S 738 mmHg 73%
20:00 +26°C° 0 mm 2 m/S 738 mmHg 76%
21:00 +24°C° 0 mm 2 m/S 738 mmHg 78%
22:00 +24°C° 0 mm 2 m/S 738 mmHg 80%
23:00 +24°C° 0 mm 2 m/S 737 mmHg 81%

20 Juni, Sonntag

Zeit Temperatur Niederschläge Wind Luftdruck Luftfeuchtigkeit
00:00 +23°C° 0 mm 1 m/S 737 mmHg 83%
01:00 +23°C° 0 mm 1 m/S 737 mmHg 85%
02:00 +22°C° 0 mm 1 m/S 738 mmHg 87%
03:00 +22°C° 0 mm 1 m/S 738 mmHg 89%
04:00 +23°C° 0 mm 1 m/S 738 mmHg 86%
05:00 +24°C° 0 mm 1 m/S 738 mmHg 84%
06:00 +25°C° 0 mm 1 m/S 738 mmHg 81%
07:00 +27°C° 0 mm 1 m/S 738 mmHg 74%
08:00 +28°C° 0 mm 2 m/S 738 mmHg 67%
09:00 +30°C° 0 mm 2 m/S 738 mmHg 60%
10:00 +31°C° 0 mm 3 m/S 738 mmHg 56%
11:00 +33°C° 0 mm 3 m/S 738 mmHg 52%
12:00 +33°C° 0 mm 4 m/S 738 mmHg 48%
13:00 +33°C° 0 mm 4 m/S 738 mmHg 50%
14:00 +33°C° 0 mm 4 m/S 738 mmHg 53%
15:00 +31°C° 0 mm 3 m/S 738 mmHg 55%
16:00 +30°C° 0.1 mm 3 m/S 738 mmHg 62%
17:00 +28°C° 0.1 mm 3 m/S 737 mmHg 70%
18:00 +27°C° 0.1 mm 3 m/S 737 mmHg 77%
19:00 +25°C° 1.3 mm 2 m/S 737 mmHg 83%
20:00 +24°C° 1.3 mm 2 m/S 737 mmHg 89%
21:00 +21°C° 1.3 mm 2 m/S 737 mmHg 96%
22:00 +21°C° 0 mm 2 m/S 737 mmHg 95%
23:00 +21°C° 0 mm 2 m/S 737 mmHg 95%
Mehr zeigen

Wir brauchen deine Erlaubnis

Meteoprog und unser Service Anbieter werden persönliche Daten aufbewahren, so wie Cookies, Geräte Bezeichnung oder ähnliche Technologien von deinem Gerät und Prozess, so wie Persönliche Daten Inhalte und Werbungen, genauso wie social Media und den Verkehr zu analysieren.

  • Aufbewahrung und/oder Zugang zu deiner Geräte Informationen.

    Cookies, Geräte Bezeichnung oder andere Informationen, können aufbewahrt oder Zugang zu deinem Gerät erhalten, für den Grund, der oben angegeben wird.

  • Personalisierte Werbung und Inhalte, Messungen, Einblick in das Publikum und Produkt Entwicklung.

    Werbungen und Inhalte können personalisiert werden, basierend auf ein Profil. Mehr Daten können besser personalisierte Werbungen und Inhalte hinzufügen. Werbung und Inhalte können gezeigt und gemessen werden. Einblicke über das Publikum, welche die Werbung gesehen haben und den Inhalt, können abgeleitet werden. So wie Daten können genutzt werden, um es zu verbessern oder die Benutzer Erfahrung zu verbessern das System und die Software.

Wenn du “Ich stimme zu” klickst, erlaubst du uns, die Cookies zu benutzen die Geräte Bezeichnung, den Web oder ähnliche Technologien zu benutzen. Deine Settings, können in deinem Gerät bei deinem Browser geändert werden.

Für den bestimmten Zweck, berechtigten Interessen beruhen darauf, mehr als auf den Inhalt. Du kannst mehr darüber in unseren Privaten und Cookie Politik lesen.